This demonstration page uses our WeatherBlox Daily Observations layout. Learn more.

Left ArrowRight Arrow

Hourly Observations for December 30, 2016

Temp ( °F °C ) Dew Point ( °F °C ) Humidity (%) Winds ( mph kmh ) Pressure ( in mb ) Visibility ( mi km ) Precip ( " mm )
12:15 am 00:15 Cloudy 32 undefined 23 -5 69 69 WNW 25 41 30.03 1017 10 16 N/A
12:34 am 00:34 Cloudy 32 undefined 23 -5 69 69 WNW 24 39 30.06 1018 10 16 N/A
12:55 am 00:55 Cloudy 32 undefined 23 -5 69 69 WNW 25 41 30.06 1018 10 16 N/A
1:14 am 01:14 Cloudy 32 undefined 21 -6 64 64 WNW 18 30 30.06 1018 10 16 N/A
1:34 am 01:34 Cloudy 32 undefined 21 -6 64 64 WNW 22 35 30.06 1018 10 16 N/A
1:55 am 01:55 Cloudy 32 undefined 19 -7 60 60 WNW 22 35 30.06 1018 10 16 N/A
2:14 am 02:14 Cloudy 32 undefined 19 -7 60 60 WNW 20 31 30.06 1018 10 16 N/A
2:34 am 02:34 Cloudy 32 undefined 19 -7 60 60 WNW 21 33 30.06 1018 10 16 N/A
2:55 am 02:55 Cloudy 32 undefined 21 -6 64 64 WNW 22 35 30.06 1018 10 16 N/A
3:14 am 03:14 Cloudy 32 undefined 21 -6 64 64 WNW 21 33 30.06 1018 10 16 N/A
3:35 am 03:35 Cloudy 32 undefined 21 -6 64 64 WNW 14 22 30.06 1018 10 16 N/A
3:54 am 03:54 Cloudy 32 undefined 21 -6 64 64 WNW 14 22 30.06 1018 10 16 N/A
4:14 am 04:14 Cloudy 30 -1 23 -5 75 75 WNW 20 31 30.06 1018 10 16 N/A
4:35 am 04:35 Cloudy 30 -1 23 -5 75 75 NW 15 24 30.06 1018 10 16 N/A
4:54 am 04:54 Cloudy 30 -1 23 -5 75 75 NW 12 19 30.06 1018 7 11 N/A
5:15 am 05:15 Cloudy 28 -2 23 -5 80 80 NW 15 24 30.06 1018 7 11 N/A
5:34 am 05:34 Cloudy 28 -2 23 -5 80 80 NW 14 22 30.09 1019 10 16 N/A
5:54 am 05:54 Cloudy 28 -2 21 -6 74 74 WNW 21 33 30.09 1019 7 11 N/A
6:15 am 06:15 Cloudy 28 -2 19 -7 69 69 WNW 26 43 30.09 1019 7 11 N/A
6:34 am 06:34 Cloudy 28 -2 21 -6 74 74 WNW 18 30 30.09 1019 10 16 N/A
6:54 am 06:54 Cloudy 28 -2 19 -7 69 69 NW 15 24 30.09 1019 10 16 N/A
7:15 am 07:15 Cloudy 28 -2 19 -7 69 69 NW 21 33 30.12 1020 10 16 N/A
7:34 am 07:34 Cloudy 28 -2 19 -7 69 69 NW 14 22 30.12 1020 10 16 N/A
7:55 am 07:55 Cloudy 28 -2 21 -6 74 74 WNW 14 22 30.12 1020 10 16 N/A
8:14 am 08:14 Partly Cloudy 28 -2 21 -6 74 74 WNW 14 22 30.15 1021 10 16 N/A
8:34 am 08:34 Partly Cloudy 28 -2 21 -6 74 74 WNW 14 22 30.15 1021 10 16 N/A
8:55 am 08:55 Partly Cloudy 28 -2 19 -7 69 69 WNW 13 20 30.15 1021 10 16 N/A
9:14 am 09:14 Partly Cloudy 28 -2 19 -7 69 69 WNW 15 24 30.15 1021 10 16 N/A
9:35 am 09:35 Partly Cloudy 28 -2 19 -7 69 69 WNW 13 20 30.18 1022 10 16 N/A
9:54 am 09:54 Sunny 30 -1 19 -7 64 64 WNW 16 26 30.18 1022 10 16 N/A
10:14 am 10:14 Sunny 30 -1 18 -8 59 59 WNW 13 20 30.18 1022 10 16 N/A
10:35 am 10:35 Sunny 30 -1 18 -8 59 59 WNW 14 22 30.18 1022 10 16 N/A
10:54 am 10:54 Sunny 30 -1 18 -8 59 59 WNW 13 20 30.21 1023 10 16 N/A
11:15 am 11:15 Sunny 30 -1 18 -8 59 59 WNW 13 20 30.21 1023 10 16 N/A
11:35 am 11:35 Partly Cloudy 32 undefined 18 -8 55 55 W 13 20 30.21 1023 10 16 N/A
11:54 am 11:54 Partly Cloudy 32 undefined 19 -7 60 60 W 14 22 30.18 1022 10 16 N/A
12:15 pm 12:15 Partly Cloudy 30 -1 19 -7 64 64 W 14 22 30.18 1022 10 16 N/A
12:34 pm 12:34 Partly Cloudy 34 1 21 -6 60 60 W 14 22 30.18 1022 10 16 N/A
12:55 pm 12:55 Partly Cloudy 32 undefined 19 -7 60 60 W 14 22 30.18 1022 10 16 N/A
1:14 pm 13:14 Partly Cloudy 34 1 21 -6 60 60 WSW 14 22 30.15 1021 10 16 N/A
1:34 pm 13:34 Partly Cloudy 36 2 19 -7 52 52 W 14 22 30.15 1021 10 16 N/A
1:55 pm 13:55 Sunny 34 1 19 -7 56 56 WSW 12 19 30.15 1021 10 16 N/A
2:14 pm 14:14 Sunny 36 2 19 -7 52 52 WSW 14 22 30.12 1020 10 16 N/A
2:34 pm 14:34 Sunny 36 2 19 -7 52 52 W 12 19 30.15 1021 10 16 N/A
2:55 pm 14:55 Sunny 36 2 19 -7 52 52 WSW 15 24 30.12 1020 10 16 N/A
3:14 pm 15:14 Sunny 36 2 19 -7 52 52 W 16 26 30.12 1020 10 16 N/A
3:35 pm 15:35 Sunny 37 3 19 -7 48 48 WSW 15 24 30.12 1020 10 16 N/A
3:55 pm 15:55 Sunny 36 2 19 -7 52 52 W 20 31 30.15 1021 10 16 N/A
4:14 pm 16:14 Sunny 36 2 19 -7 52 52 W 16 26 30.12 1020 10 16 N/A
4:35 pm 16:35 Sunny 34 1 19 -7 56 56 WSW 9 15 30.12 1020 10 16 N/A
4:54 pm 16:54 Sunny 34 1 19 -7 56 56 SW 9 15 30.12 1020 10 16 N/A
5:14 pm 17:14 Partly Cloudy 34 1 19 -7 56 56 SW 8 13 30.12 1020 10 16 N/A
5:35 pm 17:35 Mostly Cloudy 32 undefined 19 -7 60 60 WSW 9 15 30.12 1020 10 16 N/A
5:54 pm 17:54 Partly Cloudy 32 undefined 19 -7 60 60 SW 9 15 30.09 1019 10 16 N/A
6:15 pm 18:15 Clear 32 undefined 19 -7 60 60 SW 7 11 30.12 1020 10 16 N/A
6:34 pm 18:34 Clear 30 -1 19 -7 64 64 S 3 6 30.12 1020 10 16 N/A
6:54 pm 18:54 Clear 30 -1 19 -7 64 64 S 5 7 30.09 1019 10 16 N/A
7:15 pm 19:15 Clear 30 -1 19 -7 64 64 SSW 6 9 30.09 1019 10 16 N/A
7:34 pm 19:34 Clear 30 -1 19 -7 64 64 SSW 7 11 30.09 1019 10 16 N/A
7:54 pm 19:54 Clear 30 -1 21 -6 69 69 S 7 11 30.09 1019 10 16 N/A
8:15 pm 20:15 Clear 30 -1 21 -6 69 69 S 8 13 30.06 1018 10 16 N/A
8:34 pm 20:34 Clear 30 -1 21 -6 69 69 S 9 15 30.06 1018 10 16 N/A
8:54 pm 20:54 Clear 30 -1 19 -7 64 64 S 9 15 30.06 1018 10 16 N/A
9:14 pm 21:14 Clear 30 -1 19 -7 64 64 S 12 19 30.06 1018 10 16 N/A
9:35 pm 21:35 Clear 30 -1 21 -6 69 69 S 10 17 30.03 1017 10 16 N/A
9:54 pm 21:54 Clear 30 -1 21 -6 69 69 S 12 19 30.03 1017 10 16 N/A
10:14 pm 22:14 Clear 30 -1 21 -6 69 69 S 10 17 30.03 1017 10 16 N/A
10:34 pm 22:34 Clear 30 -1 21 -6 69 69 S 10 17 30.00 1016 10 16 N/A
10:54 pm 22:54 Clear 30 -1 21 -6 69 69 S 12 19 30.00 1016 10 16 N/A
11:15 pm 23:15 Clear 30 -1 21 -6 69 69 S 10 17 29.97 1015 10 16 N/A
11:34 pm 23:34 Clear 30 -1 21 -6 69 69 S 12 19 29.97 1015 10 16 N/A
11:54 pm 23:54 Clear 30 -1 21 -6 69 69 S 13 20 29.97 1015 10 16 N/A

Powered by AerisWeather